This demonstration page uses our WeatherBlox Daily Observations layout. Learn more.

38.88101, -77.10428

Hourly Observations for November 22, 2016

Temp ( °F °C ) Dew Point ( °F °C ) Humidity (%) Winds ( mph kmh ) Pressure ( in mb ) Visibility ( mi km ) Precip ( " mm )
12:52 am 00:52 Clear 37 2.8 16 -8.9 42 42 W 10 17 30.12 1020 10 16.09344 0 0
1:52 am 01:52 Clear 36 2.2 17 -8.3 46 46 W 9 15 30.12 1020 10 16.09344 0 0
2:52 am 02:52 Clear 35 1.7 18 -7.8 50 50 WSW 3 6 30.12 1020 10 16.09344 0 0
3:52 am 03:52 Clear 35 1.7 18 -7.8 50 50 SW 6 9 30.12 1020 10 16.09344 0 0
4:52 am 04:52 Clear 35 1.7 19 -7.2 52 52 WSW 8 13 30.15 1021 10 16.09344 0 0
5:52 am 05:52 Clear 35 1.7 20 -6.7 54 54 WSW 10 17 30.18 1022 10 16.09344 0 0
6:52 am 06:52 Mostly Clear 36 2.2 19 -7.2 50 50 W 13 20 30.18 1022 10 16.09344 0 0
7:52 am 07:52 Mostly Sunny 37 2.8 18 -7.8 46 46 WSW 7 11 30.21 1023 10 16.09344 0 0
8:52 am 08:52 Mostly Sunny 40 4.4 18 -7.8 41 41 WSW 13 20 30.21 1023 10 16.09344 0 0
9:52 am 09:52 Mostly Sunny 43 6.1 18 -7.8 37 37 NW 8 13 30.24 1024 10 16.09344 0 0
10:52 am 10:52 Partly Cloudy 44 6.7 18 -7.8 35 35 WNW 14 22 30.24 1024 10 16.09344 0 0
11:52 am 11:52 Mostly Cloudy 47 8.3 18 -7.8 31 31 NW 12 19 30.21 1023 10 16.09344 0 0
12:52 pm 12:52 Mostly Cloudy 47 8.3 18 -7.8 31 31 WNW 13 20 30.21 1023 10 16.09344 0 0
1:52 pm 13:52 Mostly Cloudy 49 9.4 18 -7.8 29 29 W 10 17 30.21 1023 10 16.09344 0 0
2:52 pm 14:52 Mostly Cloudy 49 9.4 17 -8.3 28 28 W 7 11 30.21 1023 10 16.09344 0 0
3:52 pm 15:52 Mostly Cloudy 50 10 15 -9.4 25 25 WNW 10 17 30.24 1024 10 16.09344 0 0
4:52 pm 16:52 Mostly Cloudy 48 8.9 16 -8.9 28 28 NW 13 20 30.24 1024 10 16.09344 0 0
5:52 pm 17:52 Mostly Cloudy 47 8.3 17 -8.3 30 30 NNW 13 20 30.27 1025 10 16.09344 0 0
6:52 pm 18:52 Mostly Cloudy 44 6.7 17 -8.3 34 34 NNW 14 22 30.27 1025 10 16.09344 0 0
7:52 pm 19:52 Clear 42 5.6 19 -7.2 40 40 NNW 12 19 30.3 1026 10 16.09344 0 0
8:52 pm 20:52 Mostly Cloudy 42 5.6 21 -6.1 43 43 NW 12 19 30.33 1027 10 16.09344 0 0
9:52 pm 21:52 Mostly Cloudy 41 5 21 -6.1 45 45 N 9 15 30.33 1027 10 16.09344 0 0
10:52 pm 22:52 Mostly Clear 39 3.9 21 -6.1 48 48 NNW 10 17 30.33 1027 10 16.09344 0 0
11:52 pm 23:52 Partly Cloudy 39 3.9 21 -6.1 48 48 NW 7 11 30.33 1027 10 16.09344 0 0

Powered by AerisWeather